Time,TemperatureF,DewpointF,PressureIn,WindDirection,WindDirectionDegrees,WindSpeedMPH,WindSpeedGustMPH,Humidity,HourlyPrecipIn,Conditions,Clouds,dailyrainin,SoftwareType,DateUTC
2013-06-01 00:00:00,47.3,34.5,30.19,North,5,0.0,2.0,61,0.00,,,0.00,meteohub,2013-06-01 07:00:00,
2013-06-01 00:06:00,46.8,34.3,30.19,North,5,0.0,2.0,62,0.00,,,0.00,meteohub,2013-06-01 07:06:00,
2013-06-01 00:11:00,46.4,34.5,30.19,North,5,0.0,1.0,63,0.00,,,0.00,meteohub,2013-06-01 07:11:00,
2013-06-01 00:16:00,45.9,34.0,30.19,North,5,0.0,1.0,63,0.00,,,0.00,meteohub,2013-06-01 07:16:00,
2013-06-01 00:21:00,45.7,34.2,30.19,North,5,0.0,1.0,64,0.00,,,0.00,meteohub,2013-06-01 07:21:00,
2013-06-01 00:26:00,45.7,34.5,30.19,North,5,0.0,1.0,65,0.00,,,0.00,meteohub,2013-06-01 07:26:00,
2013-06-01 00:31:00,45.7,34.5,30.18,North,5,0.0,1.0,65,0.00,,,0.00,meteohub,2013-06-01 07:31:00,
2013-06-01 00:36:00,45.5,34.3,30.18,North,5,0.0,0.0,65,0.00,,,0.00,meteohub,2013-06-01 07:36:00,
2013-06-01 00:41:00,45.3,34.7,30.18,North,5,0.0,0.0,66,0.00,,,0.00,meteohub,2013-06-01 07:41:00,
2013-06-01 00:46:00,45.1,34.5,30.18,North,5,0.0,0.0,66,0.00,,,0.00,meteohub,2013-06-01 07:46:00,
2013-06-01 00:51:00,45.0,34.7,30.18,North,5,0.0,0.0,67,0.00,,,0.00,meteohub,2013-06-01 07:51:00,
2013-06-01 00:56:00,44.8,34.5,30.18,North,5,0.0,0.0,67,0.00,,,0.00,meteohub,2013-06-01 07:56:00,
2013-06-01 01:01:00,44.6,34.7,30.17,North,5,0.0,0.0,68,0.00,,,0.00,meteohub,2013-06-01 08:01:00,
2013-06-01 01:06:00,44.2,34.3,30.17,North,5,0.0,0.0,68,0.00,,,0.00,meteohub,2013-06-01 08:06:00,
2013-06-01 01:11:00,43.9,34.3,30.17,North,5,0.0,0.0,69,0.00,,,0.00,meteohub,2013-06-01 08:11:00,
2013-06-01 01:16:00,43.7,34.2,30.17,North,5,0.0,0.0,69,0.00,,,0.00,meteohub,2013-06-01 08:16:00,
2013-06-01 01:22:00,43.5,34.3,30.17,North,5,0.0,0.0,70,0.00,,,0.00,meteohub,2013-06-01 08:22:00,
2013-06-01 01:27:00,43.3,34.5,30.17,North,5,0.0,0.0,71,0.00,,,0.00,meteohub,2013-06-01 08:27:00,
2013-06-01 01:32:00,43.0,33.8,30.17,North,5,0.0,0.0,70,0.00,,,0.00,meteohub,2013-06-01 08:32:00,
2013-06-01 01:37:00,42.8,34.0,30.17,North,5,0.0,0.0,71,0.00,,,0.00,meteohub,2013-06-01 08:37:00,
2013-06-01 01:42:00,42.3,33.4,30.17,North,5,0.0,0.0,71,0.00,,,0.00,meteohub,2013-06-01 08:42:00,
2013-06-01 01:47:00,41.9,33.4,30.17,North,5,0.0,0.0,72,0.00,,,0.00,meteohub,2013-06-01 08:47:00,
2013-06-01 01:52:00,41.4,33.3,30.17,North,5,0.0,0.0,73,0.00,,,0.00,meteohub,2013-06-01 08:52:00,
2013-06-01 01:57:00,41.0,33.1,30.17,North,5,0.0,0.0,73,0.00,,,0.00,meteohub,2013-06-01 08:57:00,
2013-06-01 02:02:00,40.5,34.2,30.17,North,5,0.0,0.0,78,0.00,,,0.00,meteohub,2013-06-01 09:02:00,
2013-06-01 02:07:00,40.5,33.1,30.17,North,5,0.0,0.0,75,0.00,,,0.00,meteohub,2013-06-01 09:07:00,
2013-06-01 02:12:00,40.3,32.9,30.17,North,5,0.0,0.0,75,0.00,,,0.00,meteohub,2013-06-01 09:12:00,
2013-06-01 02:17:00,40.1,32.7,30.17,North,5,0.0,0.0,75,0.00,,,0.00,meteohub,2013-06-01 09:17:00,
2013-06-01 02:22:00,40.1,32.7,30.17,North,5,0.0,0.0,75,0.00,,,0.00,meteohub,2013-06-01 09:22:00,
2013-06-01 02:27:00,39.7,32.5,30.17,North,5,0.0,0.0,75,0.00,,,0.00,meteohub,2013-06-01 09:27:00,
2013-06-01 02:32:00,39.6,32.4,30.17,North,5,0.0,0.0,75,0.00,,,0.00,meteohub,2013-06-01 09:32:00,
2013-06-01 02:37:00,39.2,32.0,30.17,North,5,0.0,0.0,75,0.00,,,0.00,meteohub,2013-06-01 09:37:00,
2013-06-01 02:42:00,39.0,31.8,30.17,North,5,0.0,0.0,75,0.00,,,0.00,meteohub,2013-06-01 09:42:00,
2013-06-01 02:47:00,38.7,31.8,30.16,North,5,0.0,0.0,76,0.00,,,0.00,meteohub,2013-06-01 09:47:00,
2013-06-01 02:52:00,38.5,31.8,30.16,North,5,0.0,0.0,77,0.00,,,0.00,meteohub,2013-06-01 09:52:00,
2013-06-01 02:57:00,38.3,31.6,30.16,North,5,0.0,0.0,77,0.00,,,0.00,meteohub,2013-06-01 09:57:00,
2013-06-01 03:02:00,38.1,31.5,30.15,North,5,0.0,0.0,77,0.00,,,0.00,meteohub,2013-06-01 10:02:00,
2013-06-01 03:07:00,37.8,31.5,30.15,North,5,0.0,0.0,78,0.00,,,0.00,meteohub,2013-06-01 10:07:00,
2013-06-01 03:12:00,37.8,31.8,30.15,North,5,0.0,0.0,79,0.00,,,0.00,meteohub,2013-06-01 10:12:00,
2013-06-01 03:17:00,37.6,31.6,30.15,North,5,0.0,0.0,79,0.00,,,0.00,meteohub,2013-06-01 10:17:00,
2013-06-01 03:22:00,37.4,31.5,30.15,North,5,0.0,0.0,79,0.00,,,0.00,meteohub,2013-06-01 10:22:00,
2013-06-01 03:27:00,37.2,31.3,30.15,North,5,0.0,0.0,79,0.00,,,0.00,meteohub,2013-06-01 10:27:00,
2013-06-01 03:32:00,36.9,30.9,30.15,North,5,0.0,0.0,79,0.00,,,0.00,meteohub,2013-06-01 10:32:00,
2013-06-01 03:37:00,36.5,30.9,30.15,North,5,0.0,0.0,80,0.00,,,0.00,meteohub,2013-06-01 10:37:00,
2013-06-01 03:42:00,36.3,30.7,30.15,North,5,0.0,0.0,80,0.00,,,0.00,meteohub,2013-06-01 10:42:00,
2013-06-01 03:47:00,36.1,30.6,30.15,North,5,0.0,0.0,80,0.00,,,0.00,meteohub,2013-06-01 10:47:00,
2013-06-01 03:52:00,36.0,30.7,30.15,North,5,0.0,0.0,81,0.00,,,0.00,meteohub,2013-06-01 10:52:00,
2013-06-01 03:57:00,35.8,30.6,30.15,North,5,0.0,0.0,81,0.00,,,0.00,meteohub,2013-06-01 10:57:00,
2013-06-01 04:02:00,35.6,30.6,30.15,North,5,0.0,0.0,82,0.00,,,0.00,meteohub,2013-06-01 11:02:00,
2013-06-01 04:07:00,35.6,30.6,30.15,North,5,0.0,0.0,82,0.00,,,0.00,meteohub,2013-06-01 11:07:00,
2013-06-01 04:12:00,35.6,30.6,30.15,North,5,0.0,1.0,82,0.00,,,0.00,meteohub,2013-06-01 11:12:00,
2013-06-01 04:17:00,35.6,30.9,30.15,North,5,0.0,1.0,83,0.00,,,0.00,meteohub,2013-06-01 11:17:00,
2013-06-01 04:22:00,35.6,30.6,30.15,North,5,0.0,1.0,82,0.00,,,0.00,meteohub,2013-06-01 11:22:00,
2013-06-01 04:27:00,35.4,30.4,30.15,North,5,0.0,0.0,82,0.00,,,0.00,meteohub,2013-06-01 11:27:00,
2013-06-01 04:32:00,35.1,30.2,30.15,North,5,0.0,0.0,82,0.00,,,0.00,meteohub,2013-06-01 11:32:00,
2013-06-01 04:37:00,34.9,30.0,30.15,North,5,0.0,0.0,82,0.00,,,0.00,meteohub,2013-06-01 11:37:00,
2013-06-01 04:42:00,34.5,29.7,30.15,North,5,0.0,0.0,82,0.00,,,0.00,meteohub,2013-06-01 11:42:00,
2013-06-01 04:47:00,34.2,29.5,30.15,North,5,0.0,0.0,83,0.00,,,0.00,meteohub,2013-06-01 11:47:00,
2013-06-01 04:52:00,34.0,29.3,30.15,North,5,0.0,0.0,83,0.00,,,0.00,meteohub,2013-06-01 11:52:00,
2013-06-01 04:57:00,34.0,29.3,30.15,North,5,0.0,0.0,83,0.00,,,0.00,meteohub,2013-06-01 11:57:00,
2013-06-01 05:02:00,33.8,29.1,30.14,North,5,0.0,0.0,83,0.00,,,0.00,meteohub,2013-06-01 12:02:00,
2013-06-01 05:07:00,33.8,29.1,30.14,North,5,0.0,0.0,83,0.00,,,0.00,meteohub,2013-06-01 12:07:00,
2013-06-01 05:12:00,33.4,28.8,30.14,North,5,0.0,0.0,83,0.00,,,0.00,meteohub,2013-06-01 12:12:00,
2013-06-01 05:17:00,33.3,28.6,30.14,North,5,0.0,0.0,83,0.00,,,0.00,meteohub,2013-06-01 12:17:00,
2013-06-01 05:22:00,32.9,28.2,30.14,North,5,0.0,0.0,83,0.00,,,0.00,meteohub,2013-06-01 12:22:00,
2013-06-01 05:27:00,32.9,28.6,30.14,North,5,0.0,0.0,84,0.00,,,0.00,meteohub,2013-06-01 12:27:00,
2013-06-01 05:32:00,32.7,28.4,30.14,North,5,0.0,0.0,84,0.00,,,0.00,meteohub,2013-06-01 12:32:00,
2013-06-01 05:37:00,32.7,28.8,30.14,North,5,0.0,0.0,85,0.00,,,0.00,meteohub,2013-06-01 12:37:00,
2013-06-01 05:42:00,32.5,28.6,30.14,North,5,0.0,0.0,85,0.00,,,0.00,meteohub,2013-06-01 12:42:00,
2013-06-01 05:47:00,32.4,28.0,30.14,North,5,0.0,0.0,84,0.00,,,0.00,meteohub,2013-06-01 12:47:00,
2013-06-01 05:52:00,32.2,27.9,30.14,North,5,0.0,0.0,84,0.00,,,0.00,meteohub,2013-06-01 12:52:00,
2013-06-01 05:57:00,32.2,28.2,30.14,North,5,0.0,0.0,85,0.00,,,0.00,meteohub,2013-06-01 12:57:00,
2013-06-01 06:02:00,32.2,28.2,30.14,North,5,0.0,0.0,85,0.00,,,0.00,meteohub,2013-06-01 13:02:00,
2013-06-01 06:07:00,32.4,28.6,30.14,North,5,0.0,0.0,86,0.00,,,0.00,meteohub,2013-06-01 13:07:00,
2013-06-01 06:12:00,32.5,28.8,30.14,North,5,0.0,0.0,86,0.00,,,0.00,meteohub,2013-06-01 13:12:00,
2013-06-01 06:17:00,32.5,28.8,30.13,North,5,0.0,0.0,86,0.00,,,0.00,meteohub,2013-06-01 13:17:00,
2013-06-01 06:22:00,32.7,28.9,30.13,North,5,0.0,1.0,86,0.00,,,0.00,meteohub,2013-06-01 13:22:00,
2013-06-01 06:27:00,33.1,29.7,30.13,North,5,0.0,1.0,87,0.00,,,0.00,meteohub,2013-06-01 13:27:00,
2013-06-01 06:32:00,33.6,30.4,30.12,North,5,0.0,1.0,88,0.00,,,0.00,meteohub,2013-06-01 13:32:00,
2013-06-01 06:37:00,34.0,30.6,30.12,North,5,0.0,2.0,87,0.00,,,0.00,meteohub,2013-06-01 13:37:00,
2013-06-01 06:42:00,34.5,31.1,30.12,North,5,0.0,2.0,87,0.00,,,0.00,meteohub,2013-06-01 13:42:00,
2013-06-01 06:47:00,34.9,31.6,30.12,North,5,0.0,2.0,88,0.00,,,0.00,meteohub,2013-06-01 13:47:00,
2013-06-01 06:52:00,35.4,32.2,30.12,North,5,0.0,1.0,88,0.00,,,0.00,meteohub,2013-06-01 13:52:00,
2013-06-01 06:57:00,36.0,32.7,30.12,North,5,0.0,1.0,88,0.00,,,0.00,meteohub,2013-06-01 13:57:00,
2013-06-01 07:02:00,36.7,33.3,30.12,SW,221,0.0,1.0,87,0.00,,,0.00,meteohub,2013-06-01 14:02:00,
2013-06-01 07:07:00,37.4,33.6,30.12,South,186,0.0,4.0,86,0.00,,,0.00,meteohub,2013-06-01 14:07:00,
2013-06-01 07:12:00,38.1,34.0,30.12,South,186,0.0,4.0,85,0.00,,,0.00,meteohub,2013-06-01 14:12:00,
2013-06-01 07:17:00,38.8,34.7,30.12,South,189,0.0,5.0,85,0.00,,,0.00,meteohub,2013-06-01 14:17:00,
2013-06-01 07:22:00,39.6,35.1,30.12,South,190,0.0,5.0,84,0.00,,,0.00,meteohub,2013-06-01 14:22:00,
2013-06-01 07:27:00,40.3,35.2,30.12,South,189,0.0,5.0,82,0.00,,,0.00,meteohub,2013-06-01 14:27:00,
2013-06-01 07:32:00,41.0,35.6,30.12,SSW,194,1.0,3.0,81,0.00,,,0.00,meteohub,2013-06-01 14:32:00,
2013-06-01 07:37:00,41.7,36.0,30.12,SSW,195,0.0,4.0,80,0.00,,,0.00,meteohub,2013-06-01 14:37:00,
2013-06-01 07:42:00,42.3,36.1,30.12,South,188,3.0,5.0,79,0.00,,,0.00,meteohub,2013-06-01 14:42:00,
2013-06-01 07:47:00,43.0,36.3,30.12,SSW,196,0.0,5.0,77,0.00,,,0.00,meteohub,2013-06-01 14:47:00,
2013-06-01 07:52:00,43.9,36.9,30.12,South,170,0.0,5.0,76,0.00,,,0.00,meteohub,2013-06-01 14:52:00,
2013-06-01 07:57:00,44.6,37.6,30.12,South,178,4.0,5.0,76,0.00,,,0.00,meteohub,2013-06-01 14:57:00,
2013-06-01 08:02:00,45.3,37.6,30.11,South,186,4.0,6.0,74,0.00,,,0.00,meteohub,2013-06-01 15:02:00,
2013-06-01 08:07:00,46.2,38.1,30.11,South,186,0.0,6.0,73,0.00,,,0.00,meteohub,2013-06-01 15:07:00,
2013-06-01 08:12:00,47.1,38.5,30.11,SSW,204,0.0,6.0,72,0.00,,,0.00,meteohub,2013-06-01 15:12:00,
2013-06-01 08:17:00,48.2,39.2,30.11,South,191,0.0,5.0,71,0.00,,,0.00,meteohub,2013-06-01 15:17:00,
2013-06-01 08:22:00,49.1,39.4,30.11,SSW,196,1.0,5.0,69,0.00,,,0.00,meteohub,2013-06-01 15:22:00,
2013-06-01 08:27:00,50.2,40.1,30.11,WSW,252,3.0,5.0,68,0.00,,,0.00,meteohub,2013-06-01 15:27:00,
2013-06-01 08:32:00,51.1,40.5,30.11,SSW,210,0.0,5.0,67,0.00,,,0.00,meteohub,2013-06-01 15:32:00,
2013-06-01 08:37:00,52.0,41.0,30.11,WSW,246,0.0,4.0,66,0.00,,,0.00,meteohub,2013-06-01 15:37:00,
2013-06-01 08:42:00,52.7,40.8,30.11,SW,232,0.0,4.0,64,0.00,,,0.00,meteohub,2013-06-01 15:42:00,
2013-06-01 08:47:00,53.4,41.2,30.11,SSW,192,0.0,3.0,63,0.00,,,0.00,meteohub,2013-06-01 15:47:00,
2013-06-01 08:52:00,53.8,41.9,30.11,SW,232,0.0,3.0,64,0.00,,,0.00,meteohub,2013-06-01 15:52:00,
2013-06-01 08:57:00,54.5,43.0,30.11,SW,232,0.0,3.0,65,0.00,,,0.00,meteohub,2013-06-01 15:57:00,
2013-06-01 09:02:00,55.4,43.0,30.11,SW,232,0.0,3.0,63,0.00,,,0.00,meteohub,2013-06-01 16:02:00,
2013-06-01 09:07:00,56.3,42.6,30.11,SSW,211,0.0,1.0,60,0.00,,,0.00,meteohub,2013-06-01 16:07:00,
2013-06-01 09:12:00,57.4,42.6,30.11,SSW,201,1.0,3.0,58,0.00,,,0.00,meteohub,2013-06-01 16:12:00,
2013-06-01 09:17:00,58.3,43.5,30.10,WSW,242,3.0,3.0,58,0.00,,,0.00,meteohub,2013-06-01 16:17:00,
2013-06-01 09:22:00,58.8,43.5,30.10,WSW,249,0.0,3.0,57,0.00,,,0.00,meteohub,2013-06-01 16:22:00,
2013-06-01 09:27:00,59.4,42.6,30.10,WSW,247,0.0,3.0,54,0.00,,,0.00,meteohub,2013-06-01 16:27:00,
2013-06-01 09:32:00,59.7,44.1,30.09,South,180,0.0,3.0,56,0.00,,,0.00,meteohub,2013-06-01 16:32:00,
2013-06-01 09:37:00,60.1,42.4,30.09,South,180,0.0,3.0,52,0.00,,,0.00,meteohub,2013-06-01 16:37:00,
2013-06-01 09:42:00,60.8,44.4,30.09,SSW,194,0.0,3.0,55,0.00,,,0.00,meteohub,2013-06-01 16:42:00,
2013-06-01 09:47:00,61.5,41.5,30.09,SSW,198,1.0,3.0,48,0.00,,,0.00,meteohub,2013-06-01 16:47:00,
2013-06-01 09:52:00,61.7,42.3,30.09,SSW,198,0.0,2.0,49,0.00,,,0.00,meteohub,2013-06-01 16:52:00,
2013-06-01 09:57:00,62.2,42.3,30.09,SSW,202,0.0,2.0,48,0.00,,,0.00,meteohub,2013-06-01 16:57:00,
2013-06-01 10:02:00,62.6,43.2,30.08,SSW,198,2.0,2.0,49,0.00,,,0.00,meteohub,2013-06-01 17:02:00,
2013-06-01 10:07:00,63.3,41.5,30.08,South,185,0.0,3.0,45,0.00,,,0.00,meteohub,2013-06-01 17:07:00,
2013-06-01 10:12:00,63.7,40.8,30.08,South,188,0.0,3.0,43,0.00,,,0.00,meteohub,2013-06-01 17:12:00,
2013-06-01 10:17:00,64.2,43.5,30.08,South,190,0.0,3.0,47,0.00,,,0.00,meteohub,2013-06-01 17:17:00,
2013-06-01 10:22:00,64.2,40.6,30.08,SSW,195,1.0,3.0,42,0.00,,,0.00,meteohub,2013-06-01 17:22:00,
2013-06-01 10:27:00,63.9,40.3,30.08,NW,309,0.0,3.0,42,0.00,,,0.00,meteohub,2013-06-01 17:27:00,
2013-06-01 10:32:00,64.4,39.6,30.07,North,11,0.0,3.0,40,0.00,,,0.00,meteohub,2013-06-01 17:32:00,
2013-06-01 10:37:00,65.5,41.2,30.07,North,10,0.0,2.0,41,0.00,,,0.00,meteohub,2013-06-01 17:37:00,
2013-06-01 10:42:00,66.2,37.8,30.07,NE,34,0.0,2.0,35,0.00,,,0.00,meteohub,2013-06-01 17:42:00,
2013-06-01 10:47:00,66.4,39.2,30.06,NE,34,0.0,2.0,37,0.00,,,0.00,meteohub,2013-06-01 17:47:00,
2013-06-01 10:52:00,66.7,38.8,30.06,NNE,17,0.0,1.0,36,0.00,,,0.00,meteohub,2013-06-01 17:52:00,
2013-06-01 10:57:00,66.7,38.8,30.06,NNE,18,0.0,3.0,36,0.00,,,0.00,meteohub,2013-06-01 17:57:00,
2013-06-01 11:02:00,67.1,37.8,30.06,East,100,0.0,3.0,34,0.00,,,0.00,meteohub,2013-06-01 18:02:00,
2013-06-01 11:07:00,67.5,39.6,30.06,WNW,303,0.0,2.0,36,0.00,,,0.00,meteohub,2013-06-01 18:07:00,
2013-06-01 11:12:00,68.0,38.5,30.06,NW,304,0.0,3.0,34,0.00,,,0.00,meteohub,2013-06-01 18:12:00,
2013-06-01 11:17:00,67.8,36.0,30.05,NE,44,0.0,3.0,31,0.00,,,0.00,meteohub,2013-06-01 18:17:00,
2013-06-01 11:22:00,68.4,36.5,30.05,ESE,123,0.0,4.0,31,0.00,,,0.00,meteohub,2013-06-01 18:22:00,
2013-06-01 11:27:00,69.3,38.1,30.05,NE,48,2.0,4.0,32,0.00,,,0.00,meteohub,2013-06-01 18:27:00,
2013-06-01 11:32:00,70.2,38.8,30.04,NW,322,0.0,4.0,32,0.00,,,0.00,meteohub,2013-06-01 18:32:00,
2013-06-01 11:38:00,69.6,38.5,30.04,NW,322,0.0,3.0,32,0.00,,,0.00,meteohub,2013-06-01 18:38:00,
2013-06-01 11:43:00,69.8,40.1,30.04,NW,322,0.0,6.0,34,0.00,,,0.00,meteohub,2013-06-01 18:43:00,
2013-06-01 11:48:00,70.5,37.6,30.04,NW,318,0.0,6.0,30,0.00,,,0.00,meteohub,2013-06-01 18:48:00,
2013-06-01 11:53:00,70.7,37.8,30.04,NNW,347,0.0,6.0,30,0.00,,,0.00,meteohub,2013-06-01 18:53:00,
2013-06-01 11:58:00,70.9,39.6,30.04,NW,319,1.0,6.0,32,0.00,,,0.00,meteohub,2013-06-01 18:58:00,
2013-06-01 12:03:00,71.2,37.2,30.03,NW,315,0.0,6.0,29,0.00,,,0.00,meteohub,2013-06-01 19:03:00,
2013-06-01 12:08:00,71.8,39.6,30.03,NW,315,1.0,7.0,31,0.00,,,0.00,meteohub,2013-06-01 19:08:00,
2013-06-01 12:13:00,72.5,41.0,30.03,NW,315,1.0,7.0,32,0.00,,,0.00,meteohub,2013-06-01 19:13:00,
2013-06-01 12:18:00,73.2,39.9,30.03,SSW,210,3.0,7.0,30,0.00,,,0.00,meteohub,2013-06-01 19:18:00,
2013-06-01 12:23:00,73.6,38.5,30.03,WSW,240,0.0,5.0,28,0.00,,,0.00,meteohub,2013-06-01 19:23:00,
2013-06-01 12:28:00,73.2,39.0,30.03,SW,217,0.0,5.0,29,0.00,,,0.00,meteohub,2013-06-01 19:28:00,
2013-06-01 12:33:00,73.2,38.1,30.01,NE,56,0.0,5.0,28,0.00,,,0.00,meteohub,2013-06-01 19:33:00,
2013-06-01 12:38:00,73.4,40.1,30.01,SSW,193,2.0,5.0,30,0.00,,,0.00,meteohub,2013-06-01 19:38:00,
2013-06-01 12:43:00,73.8,36.7,30.01,ESE,112,2.0,5.0,26,0.00,,,0.00,meteohub,2013-06-01 19:43:00,
2013-06-01 12:49:00,72.1,38.1,30.01,East,100,0.0,5.0,29,0.00,,,0.00,meteohub,2013-06-01 19:49:00,
2013-06-01 12:54:00,72.7,37.6,30.01,East,98,0.0,4.0,28,0.00,,,0.00,meteohub,2013-06-01 19:54:00,
2013-06-01 12:59:00,73.8,39.6,30.01,ESE,111,0.0,3.0,29,0.00,,,0.00,meteohub,2013-06-01 19:59:00,
2013-06-01 13:04:00,74.3,39.9,29.99,SSE,163,0.0,3.0,29,0.00,,,0.00,meteohub,2013-06-01 20:04:00,
2013-06-01 13:09:00,74.5,37.2,29.99,ENE,78,0.0,4.0,26,0.00,,,0.00,meteohub,2013-06-01 20:09:00,
2013-06-01 13:14:00,73.9,37.8,29.99,SSW,192,4.0,4.0,27,0.00,,,0.00,meteohub,2013-06-01 20:14:00,
2013-06-01 13:19:00,73.8,38.7,29.99,SSW,194,0.0,5.0,28,0.00,,,0.00,meteohub,2013-06-01 20:19:00,
2013-06-01 13:24:00,73.8,38.7,29.99,SSW,206,4.0,5.0,28,0.00,,,0.00,meteohub,2013-06-01 20:24:00,
2013-06-01 13:29:00,74.3,39.0,29.99,South,181,0.0,5.0,28,0.00,,,0.00,meteohub,2013-06-01 20:29:00,
2013-06-01 13:34:00,74.3,38.1,29.99,East,83,0.0,5.0,27,0.00,,,0.00,meteohub,2013-06-01 20:34:00,
2013-06-01 13:39:00,73.6,38.5,29.99,ESE,115,0.0,5.0,28,0.00,,,0.00,meteohub,2013-06-01 20:39:00,
2013-06-01 13:44:00,74.3,39.9,29.97,ENE,71,0.0,4.0,29,0.00,,,0.00,meteohub,2013-06-01 20:44:00,
2013-06-01 13:49:00,75.0,38.7,29.97,SSW,200,0.0,5.0,27,0.00,,,0.00,meteohub,2013-06-01 20:49:00,
2013-06-01 13:55:00,75.6,39.2,29.97,SW,222,2.0,7.0,27,0.00,,,0.00,meteohub,2013-06-01 20:55:00,
2013-06-01 14:00:00,76.1,40.6,29.97,NE,36,0.0,7.0,28,0.00,,,0.00,meteohub,2013-06-01 21:00:00,
2013-06-01 14:05:00,76.3,37.8,29.97,East,97,2.0,7.0,25,0.00,,,0.00,meteohub,2013-06-01 21:05:00,
2013-06-01 14:10:00,75.9,38.5,29.97,South,191,0.0,9.0,26,0.00,,,0.00,meteohub,2013-06-01 21:10:00,
2013-06-01 14:15:00,75.7,38.3,29.96,SSW,194,0.0,9.0,26,0.00,,,0.00,meteohub,2013-06-01 21:15:00,
2013-06-01 14:20:00,76.1,38.7,29.96,WSW,252,3.0,9.0,26,0.00,,,0.00,meteohub,2013-06-01 21:20:00,
2013-06-01 14:25:00,76.5,39.9,29.96,NW,311,1.0,5.0,27,0.00,,,0.00,meteohub,2013-06-01 21:25:00,
2013-06-01 14:30:00,76.8,39.2,29.96,SSW,210,1.0,6.0,26,0.00,,,0.00,meteohub,2013-06-01 21:30:00,
2013-06-01 14:35:00,77.0,39.4,29.96,NW,308,3.0,6.0,26,0.00,,,0.00,meteohub,2013-06-01 21:35:00,
2013-06-01 14:40:00,76.3,38.8,29.96,North,0,0.0,5.0,26,0.00,,,0.00,meteohub,2013-06-01 21:40:00,
2013-06-01 14:45:00,75.7,40.3,29.95,WNW,296,1.0,9.0,28,0.00,,,0.00,meteohub,2013-06-01 21:45:00,
2013-06-01 14:50:00,76.1,40.6,29.95,NNW,328,0.0,9.0,28,0.00,,,0.00,meteohub,2013-06-01 21:50:00,
2013-06-01 14:55:00,76.8,41.2,29.95,West,261,0.0,9.0,28,0.00,,,0.00,meteohub,2013-06-01 21:55:00,
2013-06-01 15:00:00,77.4,40.6,29.95,WNW,302,0.0,7.0,27,0.00,,,0.00,meteohub,2013-06-01 22:00:00,
2013-06-01 15:05:00,77.4,39.7,29.95,South,175,1.0,7.0,26,0.00,,,0.00,meteohub,2013-06-01 22:05:00,
2013-06-01 15:10:00,77.5,40.8,29.95,NW,317,2.0,7.0,27,0.00,,,0.00,meteohub,2013-06-01 22:10:00,
2013-06-01 15:16:00,77.5,38.8,29.95,West,275,2.0,6.0,25,0.00,,,0.00,meteohub,2013-06-01 22:16:00,
2013-06-01 15:21:00,77.4,37.8,29.95,NW,317,0.0,5.0,24,0.00,,,0.00,meteohub,2013-06-01 22:21:00,
2013-06-01 15:26:00,76.8,39.2,29.95,NNW,329,1.0,5.0,26,0.00,,,0.00,meteohub,2013-06-01 22:26:00,
2013-06-01 15:31:00,76.6,40.1,29.94,NW,322,5.0,5.0,27,0.00,,,0.00,meteohub,2013-06-01 22:31:00,
2013-06-01 15:36:00,76.6,40.1,29.94,SSW,212,1.0,5.0,27,0.00,,,0.00,meteohub,2013-06-01 22:36:00,
2013-06-01 15:41:00,76.6,39.2,29.94,WSW,238,0.0,7.0,26,0.00,,,0.00,meteohub,2013-06-01 22:41:00,
2013-06-01 15:46:00,77.0,40.5,29.94,WSW,246,1.0,7.0,27,0.00,,,0.00,meteohub,2013-06-01 22:46:00,
2013-06-01 15:51:00,77.7,41.0,29.94,SSW,209,1.0,5.0,27,0.00,,,0.00,meteohub,2013-06-01 22:51:00,
2013-06-01 15:56:00,77.9,41.2,29.94,South,184,0.0,6.0,27,0.00,,,0.00,meteohub,2013-06-01 22:56:00,
2013-06-01 16:01:00,77.7,40.1,29.93,WSW,237,0.0,6.0,26,0.00,,,0.00,meteohub,2013-06-01 23:01:00,
2013-06-01 16:06:00,77.5,41.9,29.93,WSW,245,2.0,6.0,28,0.00,,,0.00,meteohub,2013-06-01 23:06:00,
2013-06-01 16:11:00,77.2,40.6,29.93,WSW,246,2.0,7.0,27,0.00,,,0.00,meteohub,2013-06-01 23:11:00,
2013-06-01 16:16:00,76.8,41.2,29.93,NW,319,0.0,7.0,28,0.00,,,0.00,meteohub,2013-06-01 23:16:00,
2013-06-01 16:21:00,76.5,41.7,29.93,SW,225,0.0,5.0,29,0.00,,,0.00,meteohub,2013-06-01 23:21:00,
2013-06-01 16:26:00,76.3,41.7,29.93,NW,304,1.0,5.0,29,0.00,,,0.00,meteohub,2013-06-01 23:26:00,
2013-06-01 16:32:00,75.7,41.2,29.93,NNW,336,0.0,5.0,29,0.00,,,0.00,meteohub,2013-06-01 23:32:00,
2013-06-01 16:37:00,75.4,41.7,29.93,SW,232,0.0,6.0,30,0.00,,,0.00,meteohub,2013-06-01 23:37:00,
2013-06-01 16:42:00,75.6,41.9,29.93,NW,311,1.0,6.0,30,0.00,,,0.00,meteohub,2013-06-01 23:42:00,
2013-06-01 16:47:00,75.2,41.5,29.93,WNW,300,3.0,6.0,30,0.00,,,0.00,meteohub,2013-06-01 23:47:00,
2013-06-01 16:52:00,74.3,41.7,29.93,NW,315,0.0,8.0,31,0.00,,,0.00,meteohub,2013-06-01 23:52:00,
2013-06-01 16:57:00,74.3,40.8,29.93,SSW,192,0.0,8.0,30,0.00,,,0.00,meteohub,2013-06-01 23:57:00,
2013-06-01 17:02:00,74.3,40.8,29.93,SW,234,0.0,7.0,30,0.00,,,0.00,meteohub,2013-06-02 00:02:00,
2013-06-01 17:07:00,74.5,41.9,29.93,NW,304,6.0,7.0,31,0.00,,,0.00,meteohub,2013-06-02 00:07:00,
2013-06-01 17:12:00,74.5,42.6,29.93,NW,306,2.0,8.0,32,0.00,,,0.00,meteohub,2013-06-02 00:12:00,
2013-06-01 17:17:00,74.5,41.9,29.92,WSW,255,0.0,8.0,31,0.00,,,0.00,meteohub,2013-06-02 00:17:00,
2013-06-01 17:22:00,74.5,41.9,29.92,WNW,296,1.0,8.0,31,0.00,,,0.00,meteohub,2013-06-02 00:22:00,
2013-06-01 17:27:00,74.1,41.5,29.92,North,350,2.0,8.0,31,0.00,,,0.00,meteohub,2013-06-02 00:27:00,
2013-06-01 17:32:00,73.6,41.0,29.92,West,275,0.0,8.0,31,0.00,,,0.00,meteohub,2013-06-02 00:32:00,
2013-06-01 17:37:00,73.6,41.9,29.92,SW,236,2.0,5.0,32,0.00,,,0.00,meteohub,2013-06-02 00:37:00,
2013-06-01 17:42:00,73.4,40.8,29.92,West,261,1.0,5.0,31,0.00,,,0.00,meteohub,2013-06-02 00:42:00,
2013-06-01 17:47:00,73.0,41.4,29.92,West,265,1.0,5.0,32,0.00,,,0.00,meteohub,2013-06-02 00:47:00,
2013-06-01 17:52:00,72.7,41.0,29.92,SSW,192,0.0,5.0,32,0.00,,,0.00,meteohub,2013-06-02 00:52:00,
2013-06-01 17:57:00,72.5,41.0,29.92,WSW,238,0.0,5.0,32,0.00,,,0.00,meteohub,2013-06-02 00:57:00,
2013-06-01 18:02:00,72.3,40.8,29.92,WSW,242,1.0,5.0,32,0.00,,,0.00,meteohub,2013-06-02 01:02:00,
2013-06-01 18:07:00,72.3,41.5,29.92,WSW,238,0.0,6.0,33,0.00,,,0.00,meteohub,2013-06-02 01:07:00,
2013-06-01 18:12:00,72.3,41.5,29.92,South,190,1.0,6.0,33,0.00,,,0.00,meteohub,2013-06-02 01:12:00,
2013-06-01 18:17:00,72.0,41.2,29.92,SW,217,3.0,7.0,33,0.00,,,0.00,meteohub,2013-06-02 01:17:00,
2013-06-01 18:22:00,71.6,41.0,29.92,WSW,245,0.0,7.0,33,0.00,,,0.00,meteohub,2013-06-02 01:22:00,
2013-06-01 18:27:00,70.9,41.0,29.92,South,177,0.0,4.0,34,0.00,,,0.00,meteohub,2013-06-02 01:27:00,
2013-06-01 18:32:00,70.5,41.5,29.92,WSW,240,0.0,4.0,35,0.00,,,0.00,meteohub,2013-06-02 01:32:00,
2013-06-01 18:37:00,70.0,41.0,29.92,West,267,0.0,6.0,35,0.00,,,0.00,meteohub,2013-06-02 01:37:00,
2013-06-01 18:42:00,69.6,41.4,29.92,NNW,342,0.0,6.0,36,0.00,,,0.00,meteohub,2013-06-02 01:42:00,
2013-06-01 18:47:00,69.6,41.4,29.92,NW,314,3.0,4.0,36,0.00,,,0.00,meteohub,2013-06-02 01:47:00,
2013-06-01 18:52:00,69.3,41.9,29.92,SSE,167,5.0,7.0,37,0.00,,,0.00,meteohub,2013-06-02 01:52:00,
2013-06-01 18:57:00,69.1,41.0,29.92,NNW,333,0.0,7.0,36,0.00,,,0.00,meteohub,2013-06-02 01:57:00,
2013-06-01 19:02:00,68.7,42.1,29.92,NW,322,2.0,7.0,38,0.00,,,0.00,meteohub,2013-06-02 02:02:00,
2013-06-01 19:07:00,68.0,40.6,29.92,WSW,258,0.0,6.0,37,0.00,,,0.00,meteohub,2013-06-02 02:07:00,
2013-06-01 19:12:00,67.3,41.4,29.92,NW,309,0.0,6.0,39,0.00,,,0.00,meteohub,2013-06-02 02:12:00,
2013-06-01 19:17:00,66.9,41.7,29.92,NW,317,5.0,5.0,40,0.00,,,0.00,meteohub,2013-06-02 02:17:00,
2013-06-01 19:22:00,66.2,41.2,29.92,NW,318,0.0,7.0,40,0.00,,,0.00,meteohub,2013-06-02 02:22:00,
2013-06-01 19:27:00,65.8,41.4,29.92,NW,317,0.0,7.0,41,0.00,,,0.00,meteohub,2013-06-02 02:27:00,
2013-06-01 19:32:00,65.7,42.4,29.92,NW,317,0.0,7.0,43,0.00,,,0.00,meteohub,2013-06-02 02:32:00,
2013-06-01 19:37:00,65.3,41.0,29.92,NW,319,0.0,6.0,41,0.00,,,0.00,meteohub,2013-06-02 02:37:00,
2013-06-01 19:42:00,64.9,42.4,29.92,NW,319,0.0,5.0,44,0.00,,,0.00,meteohub,2013-06-02 02:42:00,
2013-06-01 19:47:00,64.8,42.3,29.92,NW,309,0.0,5.0,44,0.00,,,0.00,meteohub,2013-06-02 02:47:00,
2013-06-01 19:52:00,64.4,41.9,29.92,NW,309,0.0,5.0,44,0.00,,,0.00,meteohub,2013-06-02 02:52:00,
2013-06-01 19:57:00,64.0,42.3,29.92,NW,309,0.0,4.0,45,0.00,,,0.00,meteohub,2013-06-02 02:57:00,
2013-06-01 20:02:00,63.7,43.0,29.92,NW,309,0.0,2.0,47,0.00,,,0.00,meteohub,2013-06-02 03:02:00,
2013-06-01 20:07:00,63.3,42.1,29.92,NW,309,0.0,1.0,46,0.00,,,0.00,meteohub,2013-06-02 03:07:00,
2013-06-01 20:12:00,63.0,42.4,29.92,NW,309,0.0,1.0,47,0.00,,,0.00,meteohub,2013-06-02 03:12:00,
2013-06-01 20:17:00,62.6,42.6,29.92,NW,309,0.0,1.0,48,0.00,,,0.00,meteohub,2013-06-02 03:17:00,
2013-06-01 20:22:00,62.1,42.1,29.92,NW,309,0.0,1.0,48,0.00,,,0.00,meteohub,2013-06-02 03:22:00,
2013-06-01 20:27:00,61.3,41.5,29.92,NW,309,0.0,0.0,48,0.00,,,0.00,meteohub,2013-06-02 03:27:00,
2013-06-01 20:32:00,60.8,41.5,29.92,NW,309,0.0,0.0,49,0.00,,,0.00,meteohub,2013-06-02 03:32:00,
2013-06-01 20:37:00,60.3,41.5,29.92,NW,309,0.0,0.0,50,0.00,,,0.00,meteohub,2013-06-02 03:37:00,
2013-06-01 20:42:00,59.7,41.5,29.92,NW,309,0.0,0.0,51,0.00,,,0.00,meteohub,2013-06-02 03:42:00,
2013-06-01 20:47:00,59.2,41.0,29.92,NW,309,0.0,2.0,51,0.00,,,0.00,meteohub,2013-06-02 03:47:00,
2013-06-01 20:52:00,58.6,41.0,29.92,NW,309,0.0,2.0,52,0.00,,,0.00,meteohub,2013-06-02 03:52:00,
2013-06-01 20:57:00,58.5,41.4,29.92,NW,309,0.0,2.0,53,0.00,,,0.00,meteohub,2013-06-02 03:57:00,
2013-06-01 21:01:00,58.1,41.5,29.93,NW,309,0.0,0.0,54,0.00,,,0.00,meteohub,2013-06-02 04:01:00,
2013-06-01 21:02:00,57.9,41.4,29.93,NW,309,0.0,0.0,54,0.00,,,0.00,meteohub,2013-06-02 04:02:00,
2013-06-01 21:03:00,57.9,41.4,29.93,NW,309,0.0,0.0,54,0.00,,,0.00,meteohub,2013-06-02 04:03:00,
2013-06-01 21:07:00,57.4,41.4,29.93,NW,309,0.0,0.0,55,0.00,,,0.00,meteohub,2013-06-02 04:07:00,
2013-06-01 21:12:00,56.7,41.2,29.93,NW,309,0.0,1.0,56,0.00,,,0.00,meteohub,2013-06-02 04:12:00,
2013-06-01 21:17:00,56.3,41.2,29.94,NW,309,0.0,1.0,57,0.00,,,0.00,meteohub,2013-06-02 04:17:00,
2013-06-01 21:22:00,55.9,41.4,29.94,NNE,15,1.0,1.0,58,0.00,,,0.00,meteohub,2013-06-02 04:22:00,
2013-06-01 21:27:00,55.8,41.2,29.94,NNE,19,0.0,2.0,58,0.00,,,0.00,meteohub,2013-06-02 04:27:00,
2013-06-01 21:32:00,55.6,41.5,29.94,NNE,19,0.0,4.0,59,0.00,,,0.00,meteohub,2013-06-02 04:32:00,
2013-06-01 21:37:00,55.6,41.9,29.94,NNE,19,0.0,4.0,60,0.00,,,0.00,meteohub,2013-06-02 04:37:00,
2013-06-01 21:42:00,55.4,41.7,29.94,NNE,19,0.0,1.0,60,0.00,,,0.00,meteohub,2013-06-02 04:42:00,
2013-06-01 21:47:00,55.2,41.5,29.94,NNE,19,0.0,1.0,60,0.00,,,0.00,meteohub,2013-06-02 04:47:00,
2013-06-01 21:52:00,55.2,41.9,29.94,NNE,19,0.0,1.0,61,0.00,,,0.00,meteohub,2013-06-02 04:52:00,
2013-06-01 21:57:00,55.0,41.9,29.94,NNE,19,0.0,3.0,61,0.00,,,0.00,meteohub,2013-06-02 04:57:00,
2013-06-01 22:02:00,54.9,42.1,29.94,NNE,19,0.0,3.0,62,0.00,,,0.00,meteohub,2013-06-02 05:02:00,
2013-06-01 22:07:00,54.7,41.9,29.94,NNE,19,0.0,4.0,62,0.00,,,0.00,meteohub,2013-06-02 05:07:00,
2013-06-01 22:13:00,54.5,41.7,29.94,NNE,19,0.0,4.0,62,0.00,,,0.00,meteohub,2013-06-02 05:13:00,
2013-06-01 22:18:00,54.1,41.7,29.94,NNE,19,0.0,4.0,63,0.00,,,0.00,meteohub,2013-06-02 05:18:00,
2013-06-01 22:23:00,53.8,41.5,29.94,NNE,19,0.0,0.0,63,0.00,,,0.00,meteohub,2013-06-02 05:23:00,
2013-06-01 22:28:00,53.4,41.5,29.94,NNE,19,0.0,0.0,64,0.00,,,0.00,meteohub,2013-06-02 05:28:00,
2013-06-01 22:33:00,52.9,41.0,29.94,NNE,19,0.0,0.0,64,0.00,,,0.00,meteohub,2013-06-02 05:33:00,
2013-06-01 22:38:00,52.5,41.0,29.94,NNE,19,0.0,0.0,65,0.00,,,0.00,meteohub,2013-06-02 05:38:00,
2013-06-01 22:43:00,52.3,41.4,29.94,NNE,19,0.0,0.0,66,0.00,,,0.00,meteohub,2013-06-02 05:43:00,
2013-06-01 22:48:00,52.0,41.0,29.94,NNE,19,0.0,0.0,66,0.00,,,0.00,meteohub,2013-06-02 05:48:00,
2013-06-01 22:53:00,51.8,41.2,29.94,NNE,19,0.0,1.0,67,0.00,,,0.00,meteohub,2013-06-02 05:53:00,
2013-06-01 22:58:00,51.6,41.4,29.94,NNE,19,0.0,1.0,68,0.00,,,0.00,meteohub,2013-06-02 05:58:00,
2013-06-01 23:03:00,51.3,41.4,29.94,NNE,19,0.0,1.0,69,0.00,,,0.00,meteohub,2013-06-02 06:03:00,
2013-06-01 23:08:00,51.1,41.2,29.94,NNE,19,0.0,0.0,69,0.00,,,0.00,meteohub,2013-06-02 06:08:00,
2013-06-01 23:13:00,50.9,41.5,29.94,NNE,19,0.0,0.0,70,0.00,,,0.00,meteohub,2013-06-02 06:13:00,
2013-06-01 23:18:00,50.7,41.4,29.94,NNE,19,0.0,0.0,70,0.00,,,0.00,meteohub,2013-06-02 06:18:00,
2013-06-01 23:23:00,50.4,41.4,29.94,NNE,19,0.0,0.0,71,0.00,,,0.00,meteohub,2013-06-02 06:23:00,
2013-06-01 23:28:00,50.2,41.2,29.94,NNE,19,0.0,0.0,71,0.00,,,0.00,meteohub,2013-06-02 06:28:00,
2013-06-01 23:34:00,50.0,41.4,29.93,NNE,19,0.0,0.0,72,0.00,,,0.00,meteohub,2013-06-02 06:34:00,
2013-06-01 23:39:00,49.5,40.8,29.93,NNE,19,0.0,0.0,72,0.00,,,0.00,meteohub,2013-06-02 06:39:00,
2013-06-01 23:44:00,49.3,41.0,29.93,NNE,19,0.0,0.0,73,0.00,,,0.00,meteohub,2013-06-02 06:44:00,
2013-06-01 23:49:00,49.1,40.8,29.93,NNE,19,0.0,0.0,73,0.00,,,0.00,meteohub,2013-06-02 06:49:00,
2013-06-01 23:54:00,48.7,40.5,29.93,NNE,19,0.0,0.0,73,0.00,,,0.00,meteohub,2013-06-02 06:54:00,
2013-06-01 23:59:00,48.4,40.1,29.93,NNE,19,0.0,0.0,73,0.00,,,0.00,meteohub,2013-06-02 06:59:00,